Toledo, OH

1:18 PM EDT on March 28, 2017 (GMT -0400)
Toledo Express

Weather History for KTOL - October, 2013

Change the Weather History Date:

Thursday, October 3, 2013

  Actual Average Record
Temperature  
Mean Temperature 69 °F 57 °F  
Max Temperature 80 °F 68 °F 90 °F (1953)
Min Temperature 58 °F 46 °F 23 °F (1974)
Degree Days  
Heating Degree Days 0 9  
Month to date heating degree days 2 26  
Since 1 July heating degree days 149 150  
Cooling Degree Days 4 1  
Month to date cooling degree days 11 3  
Year to date cooling degree days 783 787  
Growing Degree Days 18 (Base 50)    
Moisture  
Dew Point 64 °F    
Average Humidity 88    
Maximum Humidity 97    
Minimum Humidity 78    
Precipitation  
Precipitation 0.12 in 0.10 in 2.53 in (1986)
Month to date precipitation 0.12 0.27  
Year to date precipitation 28.88 26.37  
Snow  
Snow 0.00 in 0.00 in - ()
Month to date snowfall 0.0 0.0  
Since 1 July snowfall 0.0 0.0  
Since 1 September snowfall 0.0 0.0  
Snow Depth 0.00 in    
Sea Level Pressure  
Sea Level Pressure 30.02 in    
Wind  
Wind Speed 4 mph (SW)    
Max Wind Speed 14 mph    
Max Gust Speed 18 mph    
Visibility 6 miles    
Events Rain    
T = Trace of Precipitation, MM = Missing Value Source: NWS Daily Summary

Daily Weather History Graph

Daily Weather History Graph

Search for Another Location

Airport or City:

Trip Planner

Search our weather history database for the weather conditions in past years. The results will help you decide how hot, cold, wet, or windy it might be!

Date:

Astronomy

Oct. 03, 2013 Rise Set
Actual Time 7:34 AM EDT 7:13 PM EDT
Civil Twilight 7:06 AM EDT 7:40 PM EDT
Nautical Twilight 6:34 AM EDT 8:12 PM EDT
Astronomical Twilight 6:02 AM EDT 8:45 PM EDT
Moon 6:06 AM EDT (10/3) 6:21 PM EDT (10/3)
Length of Visible Light 12h 34m
Length of Day
11h 38m
Waning Crescent, 2% of the Moon is Illuminated
Oct 3
Waning Crescent
Oct 4
New
Oct 11
First Quarter
Oct 18
Full
Oct 26
Last Quarter

Hourly Weather History & Observations

Time (EDT) Temp. Dew Point Humidity Pressure Visibility Wind Dir Wind Speed Gust Speed Precip Events Conditions
12:52 AM 64.0 °F 57.0 °F 78% 30.04 in 10.0 mi East 3.5 mph - N/A   Clear
1:52 AM 61.0 °F 57.0 °F 87% 30.03 in 10.0 mi Calm Calm - N/A   Scattered Clouds
2:52 AM 59.0 °F 57.0 °F 93% 30.03 in 10.0 mi Calm Calm - N/A   Partly Cloudy
3:52 AM 60.1 °F 57.0 °F 90% 30.02 in 10.0 mi Calm Calm - N/A   Scattered Clouds
4:52 AM 59.0 °F 57.0 °F 93% 30.02 in 10.0 mi Calm Calm - N/A   Clear
5:52 AM 61.0 °F 57.9 °F 90% 30.03 in 10.0 mi Calm Calm - N/A   Overcast
6:52 AM 60.1 °F 59.0 °F 96% 30.02 in 7.0 mi Calm Calm - N/A   Mostly Cloudy
7:52 AM 61.0 °F 59.0 °F 93% 30.03 in 4.0 mi Calm Calm - N/A   Scattered Clouds
8:52 AM 63.0 °F 61.0 °F 93% 30.03 in 4.0 mi SW 3.5 mph - N/A   Partly Cloudy
9:52 AM 66.9 °F 64.0 °F 90% 30.05 in 5.0 mi SW 4.6 mph - N/A   Mostly Cloudy
10:28 AM 69.8 °F 64.4 °F 83% 30.04 in 5.0 mi Calm Calm - N/A   Overcast
10:52 AM 70.0 °F 64.9 °F 84% 30.04 in 6.0 mi Calm Calm - N/A   Haze
11:01 AM 69.8 °F 64.4 °F 83% 30.05 in 5.0 mi SW 9.2 mph - N/A   Overcast
11:09 AM 68.0 °F 66.2 °F 94% 30.05 in 3.0 mi SW 10.4 mph - 0.01 in Rain Light Rain
11:17 AM 68.0 °F 66.2 °F 94% 30.05 in 1.8 mi WSW 5.8 mph - 0.02 in Rain Rain
11:20 AM 68.0 °F 66.2 °F 94% 30.05 in 0.8 mi WSW 4.6 mph - 0.04 in Rain Heavy Rain
11:28 AM 68.0 °F 66.2 °F 94% 30.05 in 1.0 mi WSW 5.8 mph - 0.11 in Rain Light Rain
11:31 AM 68.0 °F 66.2 °F 94% 30.05 in 2.0 mi WSW 5.8 mph - 0.11 in Rain Light Rain
11:41 AM 68.0 °F 66.2 °F 94% 30.04 in 3.0 mi Calm Calm - 0.11 in   Mostly Cloudy
11:50 AM 68.0 °F 66.2 °F 94% 30.04 in 3.0 mi SSW 4.6 mph - 0.11 in   Overcast
11:52 AM 69.1 °F 66.9 °F 93% 30.04 in 3.0 mi SW 4.6 mph - 0.11 in   Overcast
11:59 AM 69.8 °F 66.2 °F 88% 30.04 in 3.0 mi WSW 3.5 mph - N/A   Overcast
12:11 PM 69.8 °F 68.0 °F 94% 30.04 in 4.0 mi SSW 6.9 mph - N/A   Overcast
12:48 PM 71.6 °F 68.0 °F 88% 30.03 in 3.0 mi WSW 10.4 mph - N/A   Overcast
12:52 PM 71.1 °F 68.0 °F 90% 30.02 in 3.0 mi SW 9.2 mph - N/A   Overcast
1:03 PM 73.4 °F 68.0 °F 83% 30.02 in 3.0 mi SW 5.8 mph - N/A   Haze
1:32 PM 73.4 °F 66.2 °F 78% 30.02 in 7.0 mi WSW 8.1 mph - N/A   Mostly Cloudy
1:52 PM 73.9 °F 69.1 °F 85% 30.00 in 5.0 mi SW 4.6 mph - 0.01 in Rain Light Rain
2:03 PM 75.2 °F 68.0 °F 78% 30.00 in 7.0 mi SW 5.8 mph - 0.00 in   Scattered Clouds
2:52 PM 78.1 °F 66.0 °F 66% 29.97 in 10.0 mi West 10.4 mph - 0.00 in   Mostly Cloudy
3:52 PM 75.9 °F 69.1 °F 79% 29.97 in 9.0 mi Variable 5.8 mph - 0.00 in Rain Light Rain
4:52 PM 75.0 °F 68.0 °F 79% 29.96 in 9.0 mi WSW 4.6 mph - 0.00 in Rain Light Rain
5:52 PM 75.9 °F 66.9 °F 74% 29.95 in 10.0 mi SSW 4.6 mph - 0.00 in   Scattered Clouds
6:52 PM 73.9 °F 66.0 °F 76% 29.95 in 10.0 mi South 5.8 mph - N/A   Partly Cloudy
7:52 PM 71.1 °F 64.9 °F 81% 29.95 in 10.0 mi South 3.5 mph - N/A   Clear
8:52 PM 69.1 °F 64.9 °F 87% 29.97 in 10.0 mi Calm Calm - N/A   Clear
9:52 PM 69.1 °F 64.9 °F 87% 29.98 in 10.0 mi SSW 4.6 mph - N/A   Clear
10:52 PM 69.1 °F 64.9 °F 87% 29.99 in 10.0 mi South 5.8 mph - N/A   Clear